Retour au catalogue

STARLINK-5215

ActifCommunicationsVLEO
NORAD 54759·PAYLOAD·🇺🇸 United States

Lancé Dec 17, 2022 depuis Cape Canaveral Space Force Station

Loading…

Prochains Passages (prochaines 24 heures)

TLE

FraisSource: CelesTrak SupGP

Époque: Sep 15, 2026, 01:42 UTC

1 54759C 22175B   26258.07131944 -.00014348  00000+0 -46144-3 0  2580
2 54759  53.1562 257.0480 0001256  96.2994 145.0072 15.31706138    18

Suivez STARLINK-5215 en temps réel avec AllMySat

Download on the App Store